QPF
0.00 0.00 0.00 0.00 0.00 0.00 0.00 0.00 0.00 0.00 0.00 0.00 0.00 0.00 0.00 0.00 0.01 0.01 0.01 0.01 0.01 0.01 0.01 0.01 0.01 0.01 0.00 0.00 0.00 0.00 0.00 0.00 0.00 0.00 0.00 0.01 0.01 0.01 0.01 0.00 0.00 0.01 0.01
0.00 0.00 0.00 0.00 0.00 0.00 0.00 0.00 0.00 0.00 0.00 0.01 0.01 0.01 0.01 0.01 0.02 0.01 0.01 0.01 0.01 0.01 0.01 0.01 0.01 0.01 0.00 0.00 0.00 0.00 0.00 0.00 0.00 0.00 0.00 0.00 0.01 0.01 0.00 0.00 0.00 0.01 0.01
0.00 0.00 0.00 0.00 0.00 0.00 0.00 0.00 0.00 0.00 0.01 0.01 0.01 0.01 0.01 0.02 0.03 0.02 0.02 0.01 0.02 0.01 0.01 0.01 0.01 0.00 0.00 0.00 0.00 0.00 0.00 0.00 0.00 0.00 0.00 0.00 0.00 0.00 0.00 0.00 0.01 0.01 0.01
0.00 0.00 0.00 0.00 0.00 0.00 0.00 0.00 0.00 0.01 0.01 0.01 0.01 0.02 0.02 0.02 0.04 0.04 0.02 0.02 0.02 0.01 0.01 0.01 0.00 0.00 0.00 0.00 0.00 0.00 0.00 0.00 0.00 0.00 0.00 0.00 0.00 0.00 0.00 0.00 0.01 0.01 0.01
0.01 0.00 0.00 0.01 0.01 0.00 0.00 0.00 0.00 0.00 0.01 0.01 0.01 0.03 0.03 0.04 0.04 0.05 0.03 0.02 0.01 0.01 0.00 0.00 0.00 0.00 0.00 0.00 0.00 0.00 0.00 0.00 0.00 0.00 0.00 0.00 0.00 0.00 0.00 0.00 0.00 0.00 0.00
0.02 0.02 0.01 0.02 0.01 0.01 0.01 0.00 0.00 0.01 0.01 0.01 0.02 0.03 0.04 0.05 0.06 0.05 0.04 0.02 0.01 0.00 0.00 0.00 0.00 0.00 0.00 0.00 0.00 0.00 0.00 0.00 0.00 0.00 0.00 0.00 0.00 0.00 0.00 0.00 0.00 0.00 0.00
0.05 0.03 0.02 0.03 0.02 0.01 0.01 0.01 0.00 0.01 0.01 0.01 0.02 0.03 0.04 0.06 0.05 0.05 0.03 0.02 0.01 0.00 0.00 0.00 0.00 0.00 0.00 0.00 0.00 0.00 0.00 0.00 0.00 0.00 0.00 0.00 0.00 0.00 0.00 0.00 0.00 0.00 0.00
0.09 0.07 0.05 0.05 0.03 0.02 0.01 0.01 0.01 0.01 0.01 0.01 0.02 0.03 0.05 0.06 0.05 0.04 0.03 0.01 0.00 0.00 0.00 0.00 0.00 0.00 0.00 0.00 0.00 0.00 0.00 0.00 0.00 0.00 0.00 0.00 0.00 0.00 0.00 0.00 0.00 0.00 0.00
0.15 0.15 0.11 0.08 0.07 0.05 0.04 0.03 0.02 0.02 0.01 0.02 0.03 0.04 0.06 0.07 0.05 0.03 0.02 0.01 0.00 0.00 0.00 0.00 0.00 0.00 0.00 0.00 0.00 0.00 0.00 0.00 0.00 0.00 0.00 0.00 0.00 0.00 0.00 0.00 0.00 0.00 0.00
0.16 0.23 0.23 0.17 0.13 0.09 0.06 0.04 0.03 0.02 0.02 0.02 0.03 0.04 0.05 0.06 0.06 0.03 0.02 0.01 0.00 0.00 0.00 0.00 0.00 0.00 0.00 0.00 0.00 0.00 0.00 0.00 0.00 0.00 0.00 0.00 0.00 0.00 0.00 0.00 0.00 0.00 0.00
0.18 0.23 0.29 0.28 0.21 0.15 0.07 0.05 0.04 0.04 0.03 0.03 0.04 0.04 0.04 0.05 0.05 0.02 0.01 0.01 0.00 0.00 0.00 0.00 0.00 0.00 0.00 0.00 0.00 0.00 0.00 0.00 0.00 0.00 0.00 0.00 0.00 0.00 0.00 0.00 0.00 0.00 0.00
0.17 0.23 0.26 0.30 0.28 0.23 0.16 0.07 0.05 0.05 0.04 0.03 0.03 0.04 0.04 0.03 0.03 0.02 0.01 0.00 0.00 0.00 0.00 0.00 0.00 0.00 0.00 0.00 0.00 0.00 0.00 0.00 0.00 0.00 0.00 0.00 0.00 0.00 0.00 0.00 0.00 0.00 0.00
0.16 0.24 0.30 0.31 0.32 0.30 0.27 0.17 0.08 0.06 0.06 0.05 0.05 0.05 0.04 0.03 0.03 0.02 0.01 0.01 0.00 0.00 0.00 0.00 0.00 0.00 0.00 0.00 0.00 0.00 0.00 0.00 0.00 0.00 0.00 0.00 0.00 0.00 0.00 0.00 0.00 0.00 0.00
0.16 0.19 0.25 0.33 0.35 0.29 0.29 0.25 0.16 0.09 0.07 0.06 0.07 0.07 0.05 0.04 0.03 0.02 0.01 0.00 0.00 0.00 0.00 0.00 0.00 0.00 0.00 0.00 0.00 0.00 0.00 0.00 0.00 0.00 0.00 0.00 0.00 0.00 0.00 0.00 0.00 0.00 0.00
0.18 0.18 0.19 0.26 0.35 0.33 0.32 0.30 0.24 0.16 0.11 0.09 0.07 0.08 0.06 0.05 0.03 0.03 0.02 0.01 0.00 0.00 0.00 0.00 0.00 0.00 0.00 0.00 0.00 0.00 0.00 0.00 0.00 0.00 0.00 0.00 0.00 0.00 0.00 0.00 0.00 0.00 0.00
0.15 0.19 0.17 0.19 0.29 0.35 0.36 0.33 0.28 0.21 0.14 0.12 0.10 0.09 0.08 0.06 0.05 0.04 0.03 0.02 0.01 0.00 0.00 0.00 0.00 0.00 0.00 0.00 0.00 0.00 0.00 0.00 0.00 0.00 0.00 0.00 0.00 0.00 0.00 0.00 0.00 0.00 0.00
0.11 0.16 0.17 0.16 0.23 0.30 0.33 0.32 0.25 0.23 0.17 0.12 0.11 0.11 0.10 0.09 0.06 0.05 0.03 0.02 0.01 0.00 0.00 0.00 0.00 0.00 0.00 0.00 0.00 0.00 0.00 0.00 0.00 0.00 0.00 0.00 0.00 0.00 0.00 0.00 0.00 0.00 0.00
0.11 0.16 0.19 0.19 0.24 0.28 0.29 0.29 0.28 0.23 0.20 0.16 0.12 0.13 0.10 0.07 0.07 0.05 0.04 0.02 0.02 0.01 0.00 0.00 0.00 0.00 0.00 0.00 0.00 0.00 0.00 0.00 0.00 0.00 0.00 0.00 0.00 0.00 0.00 0.00 0.00 0.00 0.00
0.11 0.15 0.22 0.22 0.26 0.30 0.30 0.28 0.29 0.28 0.23 0.19 0.16 0.13 0.12 0.08 0.06 0.05 0.03 0.03 0.02 0.02 0.01 0.00 0.00 0.00 0.00 0.00 0.00 0.00 0.00 0.00 0.00 0.00 0.00 0.00 0.00 0.00 0.00 0.00 0.00 0.00 0.00
0.11 0.14 0.24 0.27 0.27 0.27 0.31 0.32 0.33 0.30 0.26 0.23 0.20 0.17 0.14 0.13 0.09 0.06 0.04 0.03 0.03 0.03 0.02 0.00 0.00 0.00 0.00 0.00 0.00 0.00 0.00 0.00 0.00 0.00 0.00 0.00 0.00 0.00 0.00 0.00 0.00 0.00 0.00
0.09 0.12 0.20 0.28 0.30 0.29 0.31 0.35 0.37 0.35 0.27 0.22 0.21 0.20 0.17 0.16 0.14 0.09 0.05 0.04 0.04 0.04 0.04 0.03 0.02 0.02 0.02 0.02 0.02 0.01 0.01 0.00 0.00 0.00 0.00 0.00 0.00 0.00 0.00 0.00 0.00 0.00 0.00
0.10 0.13 0.17 0.23 0.28 0.29 0.30 0.34 0.39 0.39 0.34 0.26 0.23 0.24 0.23 0.20 0.18 0.14 0.09 0.05 0.04 0.04 0.04 0.05 0.05 0.04 0.04 0.04 0.04 0.03 0.02 0.01 0.00 0.00 0.00 0.00 0.01 0.01 0.01 0.00 0.00 0.00 0.00
0.14 0.15 0.18 0.20 0.23 0.24 0.24 0.28 0.35 0.43 0.41 0.34 0.27 0.24 0.25 0.25 0.22 0.19 0.13 0.08 0.05 0.05 0.05 0.05 0.05 0.04 0.04 0.05 0.04 0.04 0.03 0.01 0.01 0.00 0.00 0.00 0.01 0.01 0.00 0.00 0.00 0.00 0.00
0.17 0.18 0.17 0.18 0.22 0.25 0.21 0.22 0.27 0.34 0.39 0.34 0.27 0.23 0.24 0.26 0.26 0.21 0.17 0.12 0.09 0.08 0.06 0.06 0.06 0.06 0.06 0.07 0.08 0.06 0.04 0.03 0.02 0.01 0.00 0.01 0.01 0.01 0.00 0.00 0.00 0.00 0.00
0.18 0.20 0.20 0.18 0.19 0.24 0.22 0.20 0.22 0.25 0.30 0.36 0.35 0.28 0.24 0.24 0.25 0.23 0.19 0.16 0.13 0.12 0.10 0.08 0.07 0.07 0.07 0.07 0.07 0.06 0.06 0.04 0.02 0.02 0.01 0.01 0.00 0.00 0.00 0.00 0.00 0.00 0.00
0.15 0.15 0.19 0.20 0.20 0.21 0.21 0.21 0.21 0.22 0.28 0.36 0.36 0.31 0.25 0.22 0.22 0.21 0.21 0.21 0.17 0.16 0.14 0.14 0.13 0.11 0.09 0.08 0.07 0.06 0.05 0.05 0.05 0.04 0.03 0.01 0.01 0.00 0.00 0.00 0.00 0.00 0.00
MSLP
1010.73 1010.53 1010.51 1010.65 1010.89 1011.18 1011.47 1011.71 1011.88 1012.00 1012.09 1012.20 1012.36 1012.59 1012.91 1013.29 1013.70 1014.10 1014.45 1014.73 1014.95 1015.12 1015.26 1015.41 1015.58 1015.78 1016.01 1016.25 1016.48 1016.68 1016.84 1016.96 1017.04 1017.09 1017.11 1017.13 1017.13 1017.13 1017.11 1017.09 1017.06 1017.03 1017.01
1010.52 1010.43 1010.51 1010.72 1011.01 1011.33 1011.63 1011.87 1012.04 1012.15 1012.23 1012.34 1012.50 1012.74 1013.05 1013.43 1013.84 1014.23 1014.59 1014.89 1015.13 1015.33 1015.51 1015.69 1015.88 1016.09 1016.30 1016.51 1016.71 1016.87 1017.01 1017.12 1017.20 1017.27 1017.33 1017.39 1017.43 1017.46 1017.47 1017.46 1017.44 1017.42 1017.39
1010.14 1010.18 1010.37 1010.67 1011.03 1011.41 1011.74 1012.01 1012.20 1012.32 1012.41 1012.52 1012.67 1012.89 1013.18 1013.53 1013.91 1014.28 1014.63 1014.93 1015.20 1015.45 1015.67 1015.90 1016.13 1016.36 1016.58 1016.78 1016.95 1017.09 1017.21 1017.30 1017.39 1017.48 1017.57 1017.66 1017.75 1017.81 1017.84 1017.86 1017.85 1017.82 1017.80
1009.70 1009.86 1010.15 1010.54 1010.99 1011.43 1011.81 1012.12 1012.33 1012.47 1012.57 1012.68 1012.82 1013.01 1013.27 1013.57 1013.90 1014.24 1014.57 1014.88 1015.17 1015.46 1015.74 1016.03 1016.32 1016.59 1016.84 1017.05 1017.21 1017.34 1017.45 1017.54 1017.63 1017.73 1017.84 1017.95 1018.05 1018.14 1018.19 1018.22 1018.22 1018.21 1018.19
1009.31 1009.56 1009.94 1010.41 1010.92 1011.41 1011.84 1012.17 1012.41 1012.57 1012.68 1012.78 1012.91 1013.08 1013.29 1013.55 1013.83 1014.13 1014.44 1014.75 1015.07 1015.40 1015.75 1016.10 1016.45 1016.78 1017.07 1017.31 1017.49 1017.63 1017.73 1017.81 1017.90 1018.00 1018.12 1018.23 1018.34 1018.43 1018.49 1018.52 1018.53 1018.52 1018.51
1009.08 1009.39 1009.83 1010.34 1010.89 1011.40 1011.84 1012.19 1012.43 1012.60 1012.71 1012.81 1012.93 1013.08 1013.27 1013.49 1013.75 1014.02 1014.31 1014.62 1014.96 1015.33 1015.73 1016.14 1016.55 1016.94 1017.28 1017.55 1017.76 1017.92 1018.03 1018.12 1018.20 1018.29 1018.39 1018.49 1018.59 1018.66 1018.71 1018.74 1018.75 1018.74 1018.74
1009.10 1009.43 1009.87 1010.39 1010.92 1011.42 1011.84 1012.17 1012.40 1012.56 1012.68 1012.78 1012.90 1013.05 1013.24 1013.45 1013.70 1013.96 1014.25 1014.56 1014.91 1015.31 1015.73 1016.19 1016.64 1017.07 1017.45 1017.76 1018.00 1018.18 1018.31 1018.41 1018.49 1018.57 1018.65 1018.73 1018.79 1018.84 1018.87 1018.88 1018.89 1018.89 1018.91
1009.37 1009.67 1010.08 1010.55 1011.04 1011.48 1011.85 1012.14 1012.35 1012.49 1012.61 1012.73 1012.87 1013.04 1013.25 1013.48 1013.73 1014.01 1014.30 1014.61 1014.97 1015.37 1015.80 1016.26 1016.73 1017.17 1017.57 1017.92 1018.19 1018.39 1018.54 1018.64 1018.73 1018.80 1018.86 1018.91 1018.95 1018.97 1018.98 1018.98 1018.98 1018.99 1019.02
1009.83 1010.07 1010.41 1010.81 1011.22 1011.59 1011.89 1012.12 1012.29 1012.42 1012.54 1012.69 1012.86 1013.08 1013.33 1013.60 1013.89 1014.18 1014.49 1014.81 1015.15 1015.53 1015.94 1016.38 1016.82 1017.26 1017.65 1018.00 1018.29 1018.51 1018.67 1018.80 1018.89 1018.95 1019.00 1019.04 1019.05 1019.06 1019.05 1019.05 1019.05 1019.07 1019.11
1010.35 1010.51 1010.78 1011.09 1011.42 1011.70 1011.94 1012.12 1012.26 1012.38 1012.51 1012.68 1012.90 1013.17 1013.48 1013.80 1014.14 1014.47 1014.79 1015.11 1015.44 1015.78 1016.15 1016.54 1016.93 1017.32 1017.69 1018.02 1018.30 1018.53 1018.71 1018.85 1018.95 1019.02 1019.07 1019.10 1019.11 1019.11 1019.11 1019.10 1019.12 1019.15 1019.20
1010.82 1010.91 1011.09 1011.33 1011.57 1011.79 1011.98 1012.12 1012.24 1012.37 1012.52 1012.73 1012.99 1013.31 1013.67 1014.05 1014.43 1014.80 1015.14 1015.46 1015.77 1016.08 1016.39 1016.72 1017.05 1017.37 1017.69 1017.98 1018.24 1018.46 1018.65 1018.79 1018.91 1018.99 1019.05 1019.09 1019.11 1019.12 1019.13 1019.14 1019.17 1019.21 1019.28
1011.13 1011.16 1011.27 1011.45 1011.64 1011.82 1011.97 1012.11 1012.24 1012.38 1012.56 1012.80 1013.10 1013.46 1013.86 1014.28 1014.69 1015.09 1015.45 1015.78 1016.08 1016.36 1016.63 1016.89 1017.16 1017.42 1017.67 1017.92 1018.14 1018.34 1018.51 1018.66 1018.78 1018.88 1018.95 1019.00 1019.04 1019.07 1019.10 1019.14 1019.18 1019.24 1019.31
1011.23 1011.21 1011.28 1011.42 1011.58 1011.75 1011.91 1012.07 1012.22 1012.40 1012.61 1012.87 1013.19 1013.57 1013.98 1014.42 1014.85 1015.27 1015.66 1016.00 1016.31 1016.58 1016.82 1017.05 1017.26 1017.46 1017.65 1017.84 1018.02 1018.19 1018.34 1018.47 1018.59 1018.69 1018.77 1018.84 1018.90 1018.95 1019.01 1019.07 1019.14 1019.21 1019.28
1011.13 1011.08 1011.12 1011.24 1011.40 1011.59 1011.78 1011.98 1012.18 1012.39 1012.63 1012.90 1013.22 1013.59 1013.99 1014.41 1014.85 1015.28 1015.69 1016.06 1016.39 1016.68 1016.92 1017.14 1017.32 1017.49 1017.64 1017.78 1017.91 1018.04 1018.16 1018.27 1018.37 1018.45 1018.53 1018.61 1018.68 1018.76 1018.84 1018.92 1019.00 1019.09 1019.16
1010.89 1010.81 1010.83 1010.95 1011.13 1011.35 1011.60 1011.85 1012.10 1012.35 1012.61 1012.88 1013.17 1013.50 1013.86 1014.25 1014.67 1015.10 1015.53 1015.93 1016.30 1016.63 1016.91 1017.15 1017.33 1017.49 1017.62 1017.73 1017.82 1017.91 1017.99 1018.07 1018.14 1018.21 1018.27 1018.34 1018.42 1018.51 1018.60 1018.70 1018.80 1018.88 1018.95
1010.56 1010.47 1010.48 1010.60 1010.80 1011.07 1011.37 1011.69 1011.99 1012.28 1012.54 1012.78 1013.03 1013.30 1013.59 1013.93 1014.31 1014.73 1015.18 1015.62 1016.05 1016.44 1016.77 1017.05 1017.28 1017.44 1017.57 1017.66 1017.74 1017.80 1017.85 1017.89 1017.93 1017.97 1018.02 1018.08 1018.15 1018.24 1018.34 1018.45 1018.55 1018.63 1018.69
1010.22 1010.12 1010.12 1010.25 1010.47 1010.78 1011.13 1011.50 1011.85 1012.15 1012.41 1012.62 1012.81 1013.01 1013.23 1013.50 1013.84 1014.24 1014.69 1015.17 1015.65 1016.10 1016.51 1016.85 1017.12 1017.32 1017.47 1017.57 1017.64 1017.68 1017.72 1017.74 1017.76 1017.79 1017.82 1017.86 1017.93 1018.01 1018.11 1018.21 1018.31 1018.39 1018.44
1009.90 1009.79 1009.79 1009.92 1010.16 1010.49 1010.88 1011.28 1011.66 1011.98 1012.22 1012.40 1012.53 1012.65 1012.79 1013.00 1013.29 1013.66 1014.11 1014.62 1015.14 1015.65 1016.12 1016.52 1016.84 1017.09 1017.27 1017.40 1017.48 1017.54 1017.58 1017.61 1017.63 1017.65 1017.67 1017.71 1017.77 1017.85 1017.95 1018.05 1018.15 1018.22 1018.26
1009.61 1009.50 1009.49 1009.61 1009.86 1010.20 1010.61 1011.03 1011.42 1011.74 1011.97 1012.11 1012.18 1012.24 1012.32 1012.47 1012.71 1013.05 1013.50 1014.02 1014.57 1015.12 1015.63 1016.07 1016.44 1016.73 1016.96 1017.12 1017.25 1017.34 1017.41 1017.47 1017.51 1017.55 1017.59 1017.64 1017.71 1017.80 1017.90 1018.00 1018.10 1018.17 1018.19
1009.33 1009.22 1009.21 1009.32 1009.56 1009.89 1010.29 1010.71 1011.10 1011.41 1011.62 1011.73 1011.77 1011.78 1011.82 1011.92 1012.13 1012.45 1012.88 1013.40 1013.96 1014.52 1015.05 1015.52 1015.93 1016.26 1016.52 1016.74 1016.92 1017.06 1017.19 1017.30 1017.39 1017.47 1017.55 1017.63 1017.73 1017.83 1017.95 1018.06 1018.16 1018.23 1018.25
1009.05 1008.96 1008.94 1009.03 1009.23 1009.54 1009.92 1010.31 1010.67 1010.96 1011.15 1011.25 1011.27 1011.26 1011.28 1011.37 1011.56 1011.86 1012.28 1012.78 1013.33 1013.89 1014.42 1014.90 1015.32 1015.67 1015.98 1016.25 1016.49 1016.70 1016.90 1017.08 1017.24 1017.38 1017.52 1017.65 1017.78 1017.92 1018.06 1018.19 1018.30 1018.38 1018.39
1008.79 1008.71 1008.67 1008.73 1008.89 1009.14 1009.47 1009.81 1010.14 1010.40 1010.57 1010.66 1010.68 1010.68 1010.71 1010.80 1010.99 1011.29 1011.70 1012.19 1012.72 1013.25 1013.76 1014.23 1014.65 1015.03 1015.37 1015.68 1015.98 1016.27 1016.54 1016.80 1017.03 1017.25 1017.45 1017.64 1017.82 1018.00 1018.18 1018.34 1018.47 1018.56 1018.59
1008.59 1008.51 1008.44 1008.45 1008.54 1008.72 1008.97 1009.25 1009.52 1009.75 1009.90 1009.98 1010.02 1010.05 1010.10 1010.22 1010.44 1010.75 1011.15 1011.62 1012.13 1012.63 1013.11 1013.56 1013.97 1014.36 1014.72 1015.07 1015.42 1015.77 1016.11 1016.44 1016.75 1017.03 1017.29 1017.54 1017.78 1018.01 1018.23 1018.44 1018.60 1018.72 1018.76
1008.53 1008.42 1008.30 1008.24 1008.25 1008.34 1008.49 1008.69 1008.89 1009.06 1009.19 1009.27 1009.33 1009.40 1009.49 1009.66 1009.90 1010.24 1010.64 1011.10 1011.58 1012.05 1012.51 1012.93 1013.33 1013.71 1014.08 1014.46 1014.85 1015.24 1015.63 1016.01 1016.37 1016.71 1017.03 1017.33 1017.62 1017.91 1018.18 1018.44 1018.65 1018.80 1018.88
1008.68 1008.51 1008.33 1008.18 1008.09 1008.07 1008.11 1008.21 1008.33 1008.44 1008.54 1008.62 1008.70 1008.80 1008.94 1009.15 1009.43 1009.78 1010.19 1010.63 1011.09 1011.53 1011.96 1012.35 1012.73 1013.10 1013.48 1013.87 1014.27 1014.68 1015.10 1015.50 1015.90 1016.27 1016.63 1016.99 1017.33 1017.68 1018.01 1018.32 1018.59 1018.80 1018.93
1009.07 1008.84 1008.57 1008.32 1008.13 1007.99 1007.93 1007.92 1007.95 1008.00 1008.06 1008.13 1008.21 1008.33 1008.51 1008.74 1009.05 1009.41 1009.81 1010.24 1010.66 1011.08 1011.47 1011.84 1012.19 1012.55 1012.91 1013.29 1013.69 1014.10 1014.52 1014.93 1015.34 1015.74 1016.13 1016.53 1016.93 1017.34 1017.74 1018.12 1018.45 1018.73 1018.91
Thickness
5767 5768 5767 5766 5765 5765 5765 5765 5765 5765 5764 5763 5762 5761 5760 5759 5758 5757 5756 5754 5752 5751 5749 5747 5745 5743 5742 5740 5739 5737 5736 5735 5734 5733 5733 5732 5732 5731 5730 5729 5728 5727 5727
5768 5765 5763 5761 5761 5761 5761 5761 5761 5760 5760 5759 5758 5757 5757 5756 5755 5753 5752 5751 5749 5748 5746 5744 5742 5740 5738 5737 5735 5734 5732 5731 5730 5729 5729 5729 5728 5728 5727 5726 5725 5724 5723
5763 5760 5758 5756 5755 5755 5755 5756 5756 5756 5755 5755 5754 5754 5753 5752 5751 5750 5749 5748 5746 5745 5743 5741 5739 5737 5735 5733 5732 5730 5729 5728 5727 5726 5726 5725 5725 5724 5723 5723 5722 5721 5720
5757 5754 5752 5750 5749 5749 5749 5750 5750 5751 5751 5751 5751 5750 5749 5749 5748 5747 5745 5744 5743 5741 5739 5737 5735 5733 5732 5730 5729 5727 5726 5725 5724 5723 5723 5722 5721 5721 5720 5719 5718 5718 5717
5749 5748 5746 5744 5743 5743 5743 5744 5744 5745 5746 5746 5746 5746 5745 5745 5744 5743 5742 5741 5739 5737 5735 5733 5731 5729 5728 5727 5726 5724 5723 5722 5721 5720 5720 5719 5718 5717 5716 5716 5715 5714 5713
5740 5741 5740 5738 5737 5736 5736 5737 5738 5739 5740 5741 5741 5741 5741 5741 5740 5739 5738 5736 5735 5733 5731 5729 5727 5726 5725 5724 5722 5721 5720 5719 5718 5717 5716 5716 5715 5714 5713 5712 5711 5710 5709
5731 5732 5732 5731 5730 5730 5730 5731 5732 5733 5734 5735 5736 5736 5737 5737 5736 5735 5733 5731 5730 5729 5727 5725 5723 5722 5721 5720 5719 5718 5717 5716 5715 5714 5713 5712 5712 5711 5710 5709 5708 5707 5706
5723 5724 5724 5723 5723 5723 5724 5724 5725 5726 5728 5729 5730 5731 5731 5732 5731 5730 5728 5727 5725 5724 5723 5721 5720 5719 5718 5717 5716 5714 5713 5713 5712 5711 5710 5709 5709 5708 5707 5705 5704 5703 5702
5713 5714 5715 5715 5715 5715 5716 5717 5718 5720 5721 5723 5724 5725 5726 5726 5725 5725 5724 5722 5721 5720 5719 5717 5716 5715 5714 5713 5712 5711 5710 5709 5709 5708 5707 5706 5706 5705 5704 5702 5701 5700 5699
5701 5703 5705 5706 5707 5707 5708 5709 5711 5713 5715 5716 5718 5719 5719 5719 5719 5719 5718 5717 5716 5715 5714 5713 5712 5711 5710 5710 5709 5708 5707 5706 5705 5705 5704 5703 5703 5702 5701 5699 5698 5697 5696
5688 5692 5695 5696 5698 5699 5700 5701 5703 5705 5707 5709 5711 5712 5712 5713 5713 5712 5713 5712 5712 5711 5710 5709 5708 5707 5706 5706 5705 5704 5703 5702 5702 5701 5701 5700 5700 5699 5697 5696 5695 5694 5693
5676 5681 5685 5688 5690 5692 5693 5693 5695 5697 5700 5702 5704 5704 5705 5706 5706 5706 5706 5706 5706 5705 5705 5704 5703 5703 5702 5701 5701 5701 5700 5699 5698 5698 5698 5697 5696 5695 5694 5693 5692 5691 5690
5667 5671 5675 5677 5681 5684 5685 5685 5686 5689 5692 5694 5696 5697 5698 5699 5699 5700 5699 5700 5700 5700 5699 5699 5698 5698 5698 5697 5697 5697 5696 5695 5695 5695 5694 5694 5693 5692 5691 5690 5689 5688 5686
5655 5661 5665 5668 5671 5674 5676 5677 5679 5681 5683 5687 5689 5690 5691 5692 5693 5694 5694 5694 5694 5694 5694 5694 5693 5693 5693 5693 5693 5693 5692 5692 5691 5691 5691 5690 5689 5688 5688 5686 5685 5684 5683
5645 5651 5656 5659 5663 5665 5668 5670 5672 5674 5677 5681 5682 5684 5686 5687 5687 5688 5688 5688 5688 5688 5689 5688 5688 5688 5688 5688 5688 5688 5688 5688 5688 5687 5687 5686 5685 5684 5684 5682 5681 5681 5680
5635 5642 5647 5651 5656 5658 5661 5663 5665 5668 5671 5674 5676 5678 5679 5681 5681 5682 5682 5682 5683 5683 5683 5684 5683 5683 5683 5683 5683 5684 5684 5684 5683 5683 5683 5682 5681 5680 5679 5678 5677 5676 5675
5627 5634 5639 5644 5648 5651 5654 5656 5659 5662 5665 5667 5670 5672 5673 5674 5675 5676 5676 5677 5678 5677 5677 5678 5677 5677 5678 5678 5678 5679 5679 5679 5679 5678 5678 5677 5676 5675 5674 5673 5672 5671 5670
5618 5624 5631 5636 5640 5644 5647 5649 5652 5655 5658 5661 5663 5666 5667 5668 5669 5670 5670 5671 5672 5672 5672 5672 5672 5671 5672 5672 5672 5673 5674 5673 5673 5672 5672 5671 5671 5670 5668 5667 5666 5665 5664
5610 5615 5621 5626 5631 5636 5639 5642 5646 5648 5651 5655 5657 5660 5661 5662 5663 5665 5666 5666 5666 5666 5666 5667 5666 5667 5666 5665 5666 5666 5667 5667 5667 5666 5666 5665 5665 5664 5663 5661 5660 5659 5657
5602 5608 5613 5617 5623 5628 5631 5633 5636 5639 5644 5647 5650 5653 5656 5656 5658 5660 5660 5660 5660 5660 5660 5661 5661 5661 5661 5660 5659 5658 5659 5660 5660 5660 5659 5659 5658 5657 5656 5655 5654 5652 5650
5593 5599 5604 5609 5614 5620 5623 5626 5629 5632 5637 5639 5643 5647 5650 5651 5652 5653 5655 5655 5656 5655 5656 5656 5655 5654 5653 5653 5650 5647 5648 5651 5652 5652 5652 5652 5651 5650 5650 5648 5646 5645 5643
5586 5592 5596 5602 5608 5613 5618 5622 5624 5628 5631 5634 5636 5640 5643 5645 5647 5648 5649 5650 5650 5650 5649 5649 5649 5647 5646 5647 5644 5639 5636 5638 5642 5644 5644 5644 5644 5643 5642 5641 5639 5637 5635
5579 5584 5590 5596 5602 5608 5612 5615 5617 5621 5623 5625 5629 5633 5637 5640 5641 5642 5643 5644 5644 5645 5645 5645 5645 5643 5641 5640 5642 5638 5632 5631 5632 5634 5635 5636 5635 5635 5634 5632 5631 5629 5627
5573 5579 5584 5589 5595 5602 5606 5609 5612 5615 5618 5622 5625 5628 5631 5634 5635 5637 5637 5638 5639 5639 5640 5640 5640 5640 5638 5634 5634 5636 5635 5633 5628 5625 5625 5626 5626 5626 5625 5624 5622 5621 5619
5568 5573 5578 5584 5589 5595 5600 5603 5607 5611 5614 5617 5620 5622 5625 5628 5630 5631 5631 5632 5633 5634 5635 5635 5634 5634 5634 5632 5630 5628 5626 5625 5625 5622 5618 5617 5616 5616 5616 5615 5614 5612 5610
5562 5568 5573 5577 5582 5587 5592 5596 5601 5604 5608 5610 5613 5616 5619 5622 5623 5625 5626 5626 5627 5628 5628 5629 5629 5629 5629 5628 5626 5625 5623 5621 5619 5617 5614 5610 5608 5607 5606 5606 5605 5603 5601